Year,Month,Day,Hour,Minute,Value (Times are PST for windspeed in km/hr)
2015,08,31,00,00,4.40
2015,08,31,00,01,7.20
2015,08,31,00,02,8.80
2015,08,31,00,03,7.90
2015,08,31,00,04,6.00
2015,08,31,00,05,9.30
2015,08,31,00,06,9.00
2015,08,31,00,07,9.70
2015,08,31,00,08,9.90
2015,08,31,00,09,8.60
2015,08,31,00,10,9.40
2015,08,31,00,11,8.90
2015,08,31,00,12,9.80
2015,08,31,00,13,8.90
2015,08,31,00,14,11.20
2015,08,31,00,15,11.60
2015,08,31,00,16,12.50
2015,08,31,00,17,16.00
2015,08,31,00,18,15.00
2015,08,31,00,19,10.90
2015,08,31,00,20,15.40
2015,08,31,00,21,14.30
2015,08,31,00,22,15.80
2015,08,31,00,23,16.60
2015,08,31,00,24,15.60
2015,08,31,00,25,14.10
2015,08,31,00,26,13.40
2015,08,31,00,27,11.70
2015,08,31,00,28,13.20
2015,08,31,00,29,11.90
2015,08,31,00,30,16.90
2015,08,31,00,31,12.50
2015,08,31,00,32,17.50
2015,08,31,00,33,10.70
2015,08,31,00,34,14.30
2015,08,31,00,35,14.10
2015,08,31,00,36,17.50
2015,08,31,00,37,15.20
2015,08,31,00,38,11.40
2015,08,31,00,39,10.20
2015,08,31,00,40,13.60
2015,08,31,00,41,12.90
2015,08,31,00,42,14.90
2015,08,31,00,43,13.00
2015,08,31,00,44,13.60
2015,08,31,00,45,13.40
2015,08,31,00,46,17.90
2015,08,31,00,47,16.50
2015,08,31,00,48,14.60
2015,08,31,00,49,13.10
2015,08,31,00,50,10.50
2015,08,31,00,51,9.80
2015,08,31,00,52,10.40
2015,08,31,00,53,13.20
2015,08,31,00,54,15.20
2015,08,31,00,55,12.50
2015,08,31,00,56,10.30
2015,08,31,00,57,6.50
2015,08,31,00,58,15.20
2015,08,31,00,59,13.70
2015,08,31,01,00,12.60
2015,08,31,01,01,9.70
2015,08,31,01,02,14.60
2015,08,31,01,03,15.80
2015,08,31,01,04,11.10
2015,08,31,01,05,12.30
2015,08,31,01,06,9.20
2015,08,31,01,07,9.40
2015,08,31,01,08,14.60
2015,08,31,01,09,10.60
2015,08,31,01,10,9.40
2015,08,31,01,11,14.10
2015,08,31,01,12,12.00
2015,08,31,01,13,7.60
2015,08,31,01,14,12.10
2015,08,31,01,15,14.60
2015,08,31,01,16,12.70
2015,08,31,01,17,10.90
2015,08,31,01,18,13.50
2015,08,31,01,19,9.90
2015,08,31,01,20,13.60
2015,08,31,01,21,15.90
2015,08,31,01,22,13.80
2015,08,31,01,23,11.50
2015,08,31,01,24,9.40
2015,08,31,01,25,6.90
2015,08,31,01,26,7.00
2015,08,31,01,27,8.80
2015,08,31,01,28,10.00
2015,08,31,01,29,11.00
2015,08,31,01,30,13.20
2015,08,31,01,31,8.10
2015,08,31,01,32,6.20
2015,08,31,01,33,9.20
2015,08,31,01,34,9.20
2015,08,31,01,35,8.10
2015,08,31,01,36,8.10
2015,08,31,01,37,12.40
2015,08,31,01,38,10.50
2015,08,31,01,39,8.50
2015,08,31,01,40,9.60
2015,08,31,01,41,10.20
2015,08,31,01,42,9.40
2015,08,31,01,43,8.90
2015,08,31,01,44,9.00
2015,08,31,01,45,9.40
2015,08,31,01,46,8.30
2015,08,31,01,47,9.30
2015,08,31,01,48,8.60
2015,08,31,01,49,9.30
2015,08,31,01,50,7.40
2015,08,31,01,51,7.50
2015,08,31,01,52,8.10
2015,08,31,01,53,6.70
2015,08,31,01,54,6.30
2015,08,31,01,55,5.90
2015,08,31,01,56,5.50
2015,08,31,01,57,7.50
2015,08,31,01,58,9.50
2015,08,31,01,59,8.10
2015,08,31,02,00,9.80
2015,08,31,02,01,9.70
2015,08,31,02,02,8.90
2015,08,31,02,03,9.50
2015,08,31,02,04,8.50
2015,08,31,02,05,5.20
2015,08,31,02,06,4.50
2015,08,31,02,07,7.20
2015,08,31,02,08,10.20
2015,08,31,02,09,7.50
2015,08,31,02,10,7.30
2015,08,31,02,11,10.40
2015,08,31,02,12,10.60
2015,08,31,02,13,8.80
2015,08,31,02,14,8.60
2015,08,31,02,15,5.30
2015,08,31,02,16,4.70
2015,08,31,02,17,5.30
2015,08,31,02,18,2.80
2015,08,31,02,19,5.80
2015,08,31,02,20,7.30
2015,08,31,02,21,4.90
2015,08,31,02,22,2.50
2015,08,31,02,23,3.10
2015,08,31,02,24,3.90
2015,08,31,02,25,4.20
2015,08,31,02,26,6.10
2015,08,31,02,27,4.90
2015,08,31,02,28,4.70
2015,08,31,02,29,6.50
2015,08,31,02,30,7.10
2015,08,31,02,31,8.20
2015,08,31,02,32,7.90
2015,08,31,02,33,10.00
2015,08,31,02,34,7.80
2015,08,31,02,35,7.10
2015,08,31,02,36,6.70
2015,08,31,02,37,8.20
2015,08,31,02,38,6.20
2015,08,31,02,39,6.40
2015,08,31,02,40,4.50
2015,08,31,02,41,4.70
2015,08,31,02,42,1.90
2015,08,31,02,43,2.40
2015,08,31,02,44,3.00
2015,08,31,02,45,5.00
2015,08,31,02,46,3.20
2015,08,31,02,47,2.80
2015,08,31,02,48,3.90
2015,08,31,02,49,4.60
2015,08,31,02,50,2.60
2015,08,31,02,51,2.10
2015,08,31,02,52,3.00
2015,08,31,02,53,2.20
2015,08,31,02,54,3.70
2015,08,31,02,55,4.20
2015,08,31,02,56,2.70
2015,08,31,02,57,3.90
2015,08,31,02,58,5.50
2015,08,31,02,59,4.50
2015,08,31,03,00,4.00
2015,08,31,03,01,2.30
2015,08,31,03,02,2.60
2015,08,31,03,03,3.20
2015,08,31,03,04,2.90
2015,08,31,03,05,4.10
2015,08,31,03,06,4.70
2015,08,31,03,07,5.60
2015,08,31,03,08,5.30
2015,08,31,03,09,5.30
2015,08,31,03,10,7.70
2015,08,31,03,11,9.00
2015,08,31,03,12,8.90
2015,08,31,03,13,8.40
2015,08,31,03,14,9.80
2015,08,31,03,15,6.70
2015,08,31,03,16,7.00
2015,08,31,03,17,9.00
2015,08,31,03,18,10.80
2015,08,31,03,19,13.00
2015,08,31,03,20,9.30
2015,08,31,03,21,6.10
2015,08,31,03,22,6.20
2015,08,31,03,23,7.20
2015,08,31,03,24,8.30
2015,08,31,03,25,7.10
2015,08,31,03,26,8.60
2015,08,31,03,27,10.90
2015,08,31,03,28,14.70
2015,08,31,03,29,10.80
2015,08,31,03,30,11.50
2015,08,31,03,31,13.20
2015,08,31,03,32,10.20
2015,08,31,03,33,10.00
2015,08,31,03,34,8.90
2015,08,31,03,35,9.70
2015,08,31,03,36,9.70
2015,08,31,03,37,9.90
2015,08,31,03,38,12.70
2015,08,31,03,39,11.30
2015,08,31,03,40,11.10
2015,08,31,03,41,13.50
2015,08,31,03,42,13.10
2015,08,31,03,43,11.10
2015,08,31,03,44,10.80
2015,08,31,03,45,12.90
2015,08,31,03,46,12.60
2015,08,31,03,47,9.20
2015,08,31,03,48,10.70
2015,08,31,03,49,12.10
2015,08,31,03,50,12.90
2015,08,31,03,51,8.80
2015,08,31,03,52,9.70
2015,08,31,03,53,7.90
2015,08,31,03,54,10.40
2015,08,31,03,55,9.20
2015,08,31,03,56,10.50
2015,08,31,03,57,10.50
2015,08,31,03,58,10.90
2015,08,31,03,59,12.50
2015,08,31,04,00,10.60
2015,08,31,04,01,8.80
2015,08,31,04,02,8.00
2015,08,31,04,03,6.90
2015,08,31,04,04,6.70
2015,08,31,04,05,5.30
2015,08,31,04,06,8.30
2015,08,31,04,07,6.30
2015,08,31,04,08,9.60
2015,08,31,04,09,15.00
2015,08,31,04,10,13.00
2015,08,31,04,11,12.70
2015,08,31,04,12,11.30
2015,08,31,04,13,8.90
2015,08,31,04,14,10.40
2015,08,31,04,15,10.60
2015,08,31,04,16,12.60
2015,08,31,04,17,10.30
2015,08,31,04,18,10.10
2015,08,31,04,19,8.70
2015,08,31,04,20,6.40
2015,08,31,04,21,6.10
2015,08,31,04,22,7.70
2015,08,31,04,23,10.50
2015,08,31,04,24,6.40
2015,08,31,04,25,7.30
2015,08,31,04,26,8.40
2015,08,31,04,27,8.00
2015,08,31,04,28,7.00
2015,08,31,04,29,7.50
2015,08,31,04,30,10.00
2015,08,31,04,31,11.90
2015,08,31,04,32,13.20
2015,08,31,04,33,14.30
2015,08,31,04,34,11.10
2015,08,31,04,35,12.00
2015,08,31,04,36,11.20
2015,08,31,04,37,9.50
2015,08,31,04,38,11.30
2015,08,31,04,39,10.10
2015,08,31,04,40,10.90
2015,08,31,04,41,8.00
2015,08,31,04,42,12.70
2015,08,31,04,43,11.00
2015,08,31,04,44,10.60
2015,08,31,04,45,12.30
2015,08,31,04,46,10.80
2015,08,31,04,47,12.40
2015,08,31,04,48,13.00
2015,08,31,04,49,7.80
2015,08,31,04,50,13.00
2015,08,31,04,51,12.60
2015,08,31,04,52,8.60
2015,08,31,04,53,12.30
2015,08,31,04,54,11.60
2015,08,31,04,55,7.60
2015,08,31,04,56,6.80
2015,08,31,04,57,11.10
2015,08,31,04,58,11.00
2015,08,31,04,59,6.40
2015,08,31,05,00,7.30
2015,08,31,05,01,7.00
2015,08,31,05,02,9.60
2015,08,31,05,03,7.90
2015,08,31,05,04,5.70
2015,08,31,05,05,6.40
2015,08,31,05,06,4.80
2015,08,31,05,07,5.70
2015,08,31,05,08,4.80
2015,08,31,05,09,5.00
2015,08,31,05,10,5.60
2015,08,31,05,11,7.30
2015,08,31,05,12,5.80
2015,08,31,05,13,5.00
2015,08,31,05,14,5.00
2015,08,31,05,15,5.00
2015,08,31,05,16,6.60
2015,08,31,05,17,5.70
2015,08,31,05,18,6.90
2015,08,31,05,19,8.10
2015,08,31,05,20,7.50
2015,08,31,05,21,8.20
2015,08,31,05,22,7.10
2015,08,31,05,23,5.20
2015,08,31,05,24,4.50
2015,08,31,05,25,4.50
2015,08,31,05,26,8.40
2015,08,31,05,27,6.40
2015,08,31,05,28,10.40
2015,08,31,05,29,9.90
2015,08,31,05,30,10.00
2015,08,31,05,31,7.70
2015,08,31,05,32,8.20
2015,08,31,05,33,5.20
2015,08,31,05,34,6.80
2015,08,31,05,35,7.30
2015,08,31,05,36,8.10
2015,08,31,05,37,7.70
2015,08,31,05,38,12.10
2015,08,31,05,39,9.40
2015,08,31,05,40,8.10
2015,08,31,05,41,8.90
2015,08,31,05,42,7.70
2015,08,31,05,43,5.60
2015,08,31,05,44,9.70
2015,08,31,05,45,7.90
2015,08,31,05,46,8.30
2015,08,31,05,47,9.40
2015,08,31,05,48,9.40
2015,08,31,05,49,10.80
2015,08,31,05,50,7.20
2015,08,31,05,51,10.00
2015,08,31,05,52,8.90
2015,08,31,05,53,6.70
2015,08,31,05,54,7.20
2015,08,31,05,55,8.00
2015,08,31,05,56,8.90
2015,08,31,05,57,9.60
2015,08,31,05,58,11.00
2015,08,31,05,59,10.40
2015,08,31,06,00,10.90
2015,08,31,06,01,8.30
2015,08,31,06,02,7.10
2015,08,31,06,03,4.80
2015,08,31,06,04,6.00
2015,08,31,06,05,5.40
2015,08,31,06,06,4.70
2015,08,31,06,07,3.80
2015,08,31,06,08,4.20
2015,08,31,06,09,3.60
2015,08,31,06,10,3.40
2015,08,31,06,11,3.00
2015,08,31,06,12,2.00
2015,08,31,06,13,1.80
2015,08,31,06,14,2.20
2015,08,31,06,15,3.70
2015,08,31,06,16,3.60
2015,08,31,06,17,3.90
2015,08,31,06,18,3.00
2015,08,31,06,19,2.10
2015,08,31,06,20,2.30
2015,08,31,06,21,2.50
2015,08,31,06,22,2.30
2015,08,31,06,23,1.50
2015,08,31,06,24,4.20
2015,08,31,06,25,4.10
2015,08,31,06,26,2.10
2015,08,31,06,27,0.50
2015,08,31,06,28,2.20
2015,08,31,06,29,1.70
2015,08,31,06,30,0.80
2015,08,31,06,31,0.50
2015,08,31,06,32,2.00
2015,08,31,06,33,3.00
2015,08,31,06,34,2.90
2015,08,31,06,35,1.10
2015,08,31,06,36,1.90
2015,08,31,06,37,2.20
2015,08,31,06,38,2.30
2015,08,31,06,39,2.00
2015,08,31,06,40,3.30
2015,08,31,06,41,3.40
2015,08,31,06,42,3.20
2015,08,31,06,43,2.00
2015,08,31,06,44,1.40
2015,08,31,06,45,2.00
2015,08,31,06,46,1.50
2015,08,31,06,47,1.30
2015,08,31,06,48,0.60
2015,08,31,06,49,1.00
2015,08,31,06,50,1.40
2015,08,31,06,51,0.70
2015,08,31,06,52,2.40
2015,08,31,06,53,2.80
2015,08,31,06,54,3.90
2015,08,31,06,55,2.40
2015,08,31,06,56,3.40
2015,08,31,06,57,3.20
2015,08,31,06,58,2.50
2015,08,31,06,59,2.50
2015,08,31,07,00,2.20
2015,08,31,07,01,1.80
2015,08,31,07,02,3.90
2015,08,31,07,03,2.20
2015,08,31,07,04,1.70
2015,08,31,07,05,1.20
2015,08,31,07,06,1.40
2015,08,31,07,07,1.30
2015,08,31,07,08,1.00
2015,08,31,07,09,0.50
2015,08,31,07,10,0.70
2015,08,31,07,11,0.10
2015,08,31,07,12,0.60
2015,08,31,07,13,1.00
2015,08,31,07,14,2.30
2015,08,31,07,15,2.20
2015,08,31,07,16,2.60
2015,08,31,07,17,2.80
2015,08,31,07,18,1.80
2015,08,31,07,19,0.80
2015,08,31,07,20,2.10
2015,08,31,07,21,1.70
2015,08,31,07,22,0.10
2015,08,31,07,23,0.30
2015,08,31,07,24,0.50
2015,08,31,07,25,0.80
2015,08,31,07,26,1.10
2015,08,31,07,27,1.70
2015,08,31,07,28,2.00
2015,08,31,07,29,1.00
2015,08,31,07,30,2.30
2015,08,31,07,31,1.80
2015,08,31,07,32,2.60
2015,08,31,07,33,2.40
2015,08,31,07,34,2.60
2015,08,31,07,35,3.00
2015,08,31,07,36,1.50
2015,08,31,07,37,2.80
2015,08,31,07,38,2.00
2015,08,31,07,39,1.90
2015,08,31,07,40,2.70
2015,08,31,07,41,3.50
2015,08,31,07,42,2.80
2015,08,31,07,43,1.20
2015,08,31,07,44,1.50
2015,08,31,07,45,0.90
2015,08,31,07,46,0.40
2015,08,31,07,47,1.40
2015,08,31,07,48,0.60
2015,08,31,07,49,0.30
2015,08,31,07,50,1.00
2015,08,31,07,51,1.70
2015,08,31,07,52,0.50
2015,08,31,07,53,0.50
2015,08,31,07,54,0.40
2015,08,31,07,55,0.40
2015,08,31,07,56,0.30
2015,08,31,07,57,0.50
2015,08,31,07,58,0.00
2015,08,31,07,59,0.20
2015,08,31,08,00,1.10
2015,08,31,08,01,1.60
2015,08,31,08,02,2.60
2015,08,31,08,03,1.30
2015,08,31,08,04,1.10
2015,08,31,08,05,2.00
2015,08,31,08,06,2.40
2015,08,31,08,07,1.10
2015,08,31,08,08,1.60
2015,08,31,08,09,2.50
2015,08,31,08,10,0.50
2015,08,31,08,11,0.90
2015,08,31,08,12,1.50
2015,08,31,08,13,3.00
2015,08,31,08,14,2.70
2015,08,31,08,15,3.10
2015,08,31,08,16,1.90
2015,08,31,08,17,3.30
2015,08,31,08,18,3.20
2015,08,31,08,19,3.10
2015,08,31,08,20,1.90
2015,08,31,08,21,0.80
2015,08,31,08,22,1.50
2015,08,31,08,23,2.00
2015,08,31,08,24,0.40
2015,08,31,08,25,1.20
2015,08,31,08,26,1.70
2015,08,31,08,27,0.80
2015,08,31,08,28,0.80
2015,08,31,08,29,0.20
2015,08,31,08,30,0.80
2015,08,31,08,31,0.70
2015,08,31,08,32,0.10
2015,08,31,08,33,0.70
2015,08,31,08,34,0.90
2015,08,31,08,35,2.20
2015,08,31,08,36,1.90
2015,08,31,08,37,2.10
2015,08,31,08,38,1.50
2015,08,31,08,39,1.00
2015,08,31,08,40,0.40
2015,08,31,08,41,0.50
2015,08,31,08,42,0.20
2015,08,31,08,43,0.00
2015,08,31,08,44,1.00
2015,08,31,08,45,1.70
2015,08,31,08,46,1.50
2015,08,31,08,47,1.00
2015,08,31,08,48,1.80
2015,08,31,08,49,2.60
2015,08,31,08,50,2.70
2015,08,31,08,51,2.80
2015,08,31,08,52,3.70
2015,08,31,08,53,2.60
2015,08,31,08,54,3.50
2015,08,31,08,55,3.40
2015,08,31,08,56,3.60
2015,08,31,08,57,4.00
2015,08,31,08,58,3.00
2015,08,31,08,59,3.60
2015,08,31,09,00,3.70
2015,08,31,09,01,3.00
2015,08,31,09,02,1.10
2015,08,31,09,03,2.30
2015,08,31,09,04,2.70
2015,08,31,09,05,2.10
2015,08,31,09,06,2.10
2015,08,31,09,07,1.90
2015,08,31,09,08,2.90
2015,08,31,09,09,3.10
2015,08,31,09,10,2.50
2015,08,31,09,11,2.00
2015,08,31,09,12,2.80
2015,08,31,09,13,2.30
2015,08,31,09,14,1.90
2015,08,31,09,15,1.80
2015,08,31,09,16,3.10
2015,08,31,09,17,3.40
2015,08,31,09,18,2.00
2015,08,31,09,19,2.30
2015,08,31,09,20,2.60
2015,08,31,09,21,1.20
2015,08,31,09,22,1.90
2015,08,31,09,23,2.10
2015,08,31,09,24,2.10
2015,08,31,09,25,1.30
2015,08,31,09,26,0.90
2015,08,31,09,27,0.80
2015,08,31,09,28,2.00
2015,08,31,09,29,1.80
2015,08,31,09,30,1.20
2015,08,31,09,31,0.20
2015,08,31,09,32,1.50
2015,08,31,09,33,1.80
2015,08,31,09,34,2.30
2015,08,31,09,35,0.90
2015,08,31,09,36,1.00
2015,08,31,09,37,2.00
2015,08,31,09,38,2.60
2015,08,31,09,39,1.80
2015,08,31,09,40,1.90
2015,08,31,09,41,2.00
2015,08,31,09,42,1.80
2015,08,31,09,43,2.20
2015,08,31,09,44,2.20
2015,08,31,09,45,1.90
2015,08,31,09,46,1.30
2015,08,31,09,47,2.00
2015,08,31,09,48,3.00
2015,08,31,09,49,1.20
2015,08,31,09,50,1.00
2015,08,31,09,51,1.40
2015,08,31,09,52,0.80
2015,08,31,09,53,0.10
2015,08,31,09,54,0.50
2015,08,31,09,55,1.60
2015,08,31,09,56,1.00
2015,08,31,09,57,2.10
2015,08,31,09,58,3.20
2015,08,31,09,59,3.10
2015,08,31,10,00,2.20
2015,08,31,10,01,3.20
2015,08,31,10,02,2.30
2015,08,31,10,03,3.30
2015,08,31,10,04,3.20
2015,08,31,10,05,2.70
2015,08,31,10,06,3.20
2015,08,31,10,07,3.10
2015,08,31,10,08,2.30
2015,08,31,10,09,1.80
2015,08,31,10,10,2.40
2015,08,31,10,11,2.80
2015,08,31,10,12,2.40
2015,08,31,10,13,2.80
2015,08,31,10,14,2.40
2015,08,31,10,15,2.00
2015,08,31,10,16,2.50
2015,08,31,10,17,0.60
2015,08,31,10,18,0.30
2015,08,31,10,19,0.30
2015,08,31,10,20,2.10
2015,08,31,10,21,2.20
2015,08,31,10,22,1.50
2015,08,31,10,23,0.30
2015,08,31,10,24,0.10
2015,08,31,10,25,0.70
2015,08,31,10,26,0.80
2015,08,31,10,27,0.60
2015,08,31,10,28,0.80
2015,08,31,10,29,0.50
2015,08,31,10,30,1.90
2015,08,31,10,31,1.00
2015,08,31,10,32,1.90
2015,08,31,10,33,2.30
2015,08,31,10,34,1.40
2015,08,31,10,35,1.40
2015,08,31,10,36,1.80
2015,08,31,10,37,0.20
2015,08,31,10,38,1.40
2015,08,31,10,39,2.00
2015,08,31,10,40,2.10
2015,08,31,10,41,2.50
2015,08,31,10,42,2.30
2015,08,31,10,43,2.60
2015,08,31,10,44,3.40
2015,08,31,10,45,2.50
2015,08,31,10,46,4.10
2015,08,31,10,47,4.70
2015,08,31,10,48,4.10
2015,08,31,10,49,3.00
2015,08,31,10,50,3.10
2015,08,31,10,51,4.10
2015,08,31,10,52,3.90
2015,08,31,10,53,5.10
2015,08,31,10,54,6.40
2015,08,31,10,55,4.50
2015,08,31,10,56,3.70
2015,08,31,10,57,3.20
2015,08,31,10,58,2.30
2015,08,31,10,59,2.90
2015,08,31,11,00,3.90
2015,08,31,11,01,4.40
2015,08,31,11,02,4.20
2015,08,31,11,03,5.70
2015,08,31,11,04,5.10
2015,08,31,11,05,3.10
2015,08,31,11,06,4.20
2015,08,31,11,07,3.10
2015,08,31,11,08,3.40
2015,08,31,11,09,3.50
2015,08,31,11,10,3.90
2015,08,31,11,11,1.80
2015,08,31,11,12,4.20
2015,08,31,11,13,3.60
2015,08,31,11,14,4.80
2015,08,31,11,15,4.60
2015,08,31,11,16,7.30
2015,08,31,11,17,5.00
2015,08,31,11,18,4.20
2015,08,31,11,19,5.00
2015,08,31,11,20,4.50
2015,08,31,11,21,4.40
2015,08,31,11,22,4.30
2015,08,31,11,23,7.30
2015,08,31,11,24,6.20
2015,08,31,11,25,4.00
2015,08,31,11,26,2.60
2015,08,31,11,27,4.30
2015,08,31,11,28,6.70
2015,08,31,11,29,7.20
2015,08,31,11,30,6.20
2015,08,31,11,31,9.20
2015,08,31,11,32,9.40
2015,08,31,11,33,7.20
2015,08,31,11,34,11.90
2015,08,31,11,35,11.00
2015,08,31,11,36,10.90
2015,08,31,11,37,11.60
2015,08,31,11,38,6.40
2015,08,31,11,39,4.30
2015,08,31,11,40,7.50
2015,08,31,11,41,10.10
2015,08,31,11,42,15.50
2015,08,31,11,43,13.90
2015,08,31,11,44,11.60
2015,08,31,11,45,11.30
2015,08,31,11,46,10.80
2015,08,31,11,47,8.30
2015,08,31,11,48,11.90
2015,08,31,11,49,10.00
2015,08,31,11,50,11.30
2015,08,31,11,51,14.00
2015,08,31,11,52,15.10
2015,08,31,11,53,12.60
2015,08,31,11,54,12.10
2015,08,31,11,55,13.30
2015,08,31,11,56,10.40
2015,08,31,11,57,10.60
2015,08,31,11,58,8.80
2015,08,31,11,59,10.30
2015,08,31,12,00,11.00
2015,08,31,12,01,12.20
2015,08,31,12,02,13.10
2015,08,31,12,03,11.80
2015,08,31,12,04,13.60
2015,08,31,12,05,15.00
2015,08,31,12,06,14.50
2015,08,31,12,07,12.90
2015,08,31,12,08,9.60
2015,08,31,12,09,12.00
2015,08,31,12,10,8.60
2015,08,31,12,11,8.20
2015,08,31,12,12,12.20
2015,08,31,12,13,10.50
2015,08,31,12,14,11.00
2015,08,31,12,15,9.90
2015,08,31,12,16,7.40
2015,08,31,12,17,9.20
2015,08,31,12,18,5.90
2015,08,31,12,19,8.10
2015,08,31,12,20,4.10
2015,08,31,12,21,5.60
2015,08,31,12,22,10.10
2015,08,31,12,23,5.10
2015,08,31,12,24,7.70
2015,08,31,12,25,8.90
2015,08,31,12,26,5.20
2015,08,31,12,27,7.70
2015,08,31,12,28,6.20
2015,08,31,12,29,10.80
2015,08,31,12,30,5.70
2015,08,31,12,31,6.40
2015,08,31,12,32,9.50
2015,08,31,12,33,5.10
2015,08,31,12,34,2.90
2015,08,31,12,35,5.70
2015,08,31,12,36,5.70
2015,08,31,12,37,3.60
2015,08,31,12,38,8.00
2015,08,31,12,39,8.10
2015,08,31,12,40,4.50
2015,08,31,12,41,9.60
2015,08,31,12,42,6.20
2015,08,31,12,43,7.60
2015,08,31,12,44,5.70
2015,08,31,12,45,5.80
2015,08,31,12,46,8.60
2015,08,31,12,47,6.80
2015,08,31,12,48,4.20
2015,08,31,12,49,4.20
2015,08,31,12,50,3.60
2015,08,31,12,51,4.80
2015,08,31,12,52,4.50
2015,08,31,12,53,3.70
2015,08,31,12,54,1.80
2015,08,31,12,55,2.30
2015,08,31,12,56,1.20
2015,08,31,12,57,2.70
2015,08,31,12,58,3.30
2015,08,31,12,59,2.60
2015,08,31,13,00,2.90
2015,08,31,13,01,1.80
2015,08,31,13,02,3.60
2015,08,31,13,03,2.20
2015,08,31,13,04,2.80
2015,08,31,13,05,1.40
2015,08,31,13,06,0.10
2015,08,31,13,07,0.00
2015,08,31,13,08,0.10
2015,08,31,13,09,0.30
2015,08,31,13,10,0.00
2015,08,31,13,11,0.70
2015,08,31,13,12,0.10
2015,08,31,13,13,0.60
2015,08,31,13,14,1.20
2015,08,31,13,15,0.80
2015,08,31,13,16,2.80
2015,08,31,13,17,2.40
2015,08,31,13,18,6.00
2015,08,31,13,19,5.30
2015,08,31,13,20,1.70
2015,08,31,13,21,1.50
2015,08,31,13,22,1.40
2015,08,31,13,23,0.70
2015,08,31,13,24,0.30
2015,08,31,13,25,0.20
2015,08,31,13,26,0.30
2015,08,31,13,27,0.80
2015,08,31,13,28,1.90
2015,08,31,13,29,1.90
2015,08,31,13,30,1.50
2015,08,31,13,31,0.70
2015,08,31,13,32,3.70
2015,08,31,13,33,4.80
2015,08,31,13,34,2.90
2015,08,31,13,35,3.30
2015,08,31,13,36,2.70
2015,08,31,13,37,3.20
2015,08,31,13,38,3.10
2015,08,31,13,39,3.90
2015,08,31,13,40,3.50
2015,08,31,13,41,4.50
2015,08,31,13,42,3.50
2015,08,31,13,43,2.10
2015,08,31,13,44,2.20
2015,08,31,13,45,5.30
2015,08,31,13,46,3.80
2015,08,31,13,47,3.90
2015,08,31,13,48,3.70
2015,08,31,13,49,1.20
2015,08,31,13,50,2.30
2015,08,31,13,51,3.10
2015,08,31,13,52,5.50
2015,08,31,13,53,5.80
2015,08,31,13,54,8.50
2015,08,31,13,55,6.20
2015,08,31,13,56,5.90
2015,08,31,13,57,6.00
2015,08,31,13,58,6.60
2015,08,31,13,59,6.80
2015,08,31,14,00,11.60
2015,08,31,14,01,7.60
2015,08,31,14,02,10.00
2015,08,31,14,03,10.30
2015,08,31,14,04,8.60
2015,08,31,14,05,13.80
2015,08,31,14,06,15.30
2015,08,31,14,07,13.60
2015,08,31,14,08,10.30
2015,08,31,14,09,13.20
2015,08,31,14,10,10.70
2015,08,31,14,11,11.70
2015,08,31,14,12,13.90
2015,08,31,14,13,9.60
2015,08,31,14,14,4.80
2015,08,31,14,15,10.80
2015,08,31,14,16,7.90
2015,08,31,14,17,10.60
2015,08,31,14,18,10.10
2015,08,31,14,19,10.50
2015,08,31,14,20,7.10
2015,08,31,14,21,6.30
2015,08,31,14,22,10.90
2015,08,31,14,23,13.10
2015,08,31,14,24,12.00
2015,08,31,14,25,9.70
2015,08,31,14,26,4.80
2015,08,31,14,27,6.40
2015,08,31,14,28,6.10
2015,08,31,14,29,7.70
2015,08,31,14,30,6.80
2015,08,31,14,31,8.70
2015,08,31,14,32,7.40
2015,08,31,14,33,4.20
2015,08,31,14,34,5.60
2015,08,31,14,35,5.70
2015,08,31,14,36,7.50
2015,08,31,14,37,7.30
2015,08,31,14,38,7.20
2015,08,31,14,39,7.60
2015,08,31,14,40,9.40
2015,08,31,14,41,7.50
2015,08,31,14,42,8.00
2015,08,31,14,43,10.00
2015,08,31,14,44,8.30
2015,08,31,14,45,6.40
2015,08,31,14,46,6.10
2015,08,31,14,47,8.50
2015,08,31,14,48,10.50
2015,08,31,14,49,10.00
2015,08,31,14,50,10.10
2015,08,31,14,51,6.50
2015,08,31,14,52,6.10
2015,08,31,14,53,6.10
2015,08,31,14,54,6.70
2015,08,31,14,55,6.60
2015,08,31,14,56,5.50
2015,08,31,14,57,6.70
2015,08,31,14,58,5.50
2015,08,31,14,59,3.30
2015,08,31,15,00,4.00
2015,08,31,15,01,4.60
2015,08,31,15,02,6.50
2015,08,31,15,03,4.60
2015,08,31,15,04,6.60
2015,08,31,15,05,4.60
2015,08,31,15,06,9.70
2015,08,31,15,07,10.30
2015,08,31,15,08,12.50
2015,08,31,15,09,13.40
2015,08,31,15,10,11.50
2015,08,31,15,11,7.40
2015,08,31,15,12,4.10
2015,08,31,15,13,4.70
2015,08,31,15,14,3.70
2015,08,31,15,15,6.10
2015,08,31,15,16,4.90
2015,08,31,15,17,8.60
2015,08,31,15,18,6.40
2015,08,31,15,19,6.50
2015,08,31,15,20,5.10
2015,08,31,15,21,6.40
2015,08,31,15,22,4.90
2015,08,31,15,23,9.30
2015,08,31,15,24,9.30
2015,08,31,15,25,6.30
2015,08,31,15,26,8.40
2015,08,31,15,27,8.10
2015,08,31,15,28,8.20
2015,08,31,15,29,6.10
2015,08,31,15,30,8.90
2015,08,31,15,31,10.50
2015,08,31,15,32,7.80
2015,08,31,15,33,12.30
2015,08,31,15,34,9.20
2015,08,31,15,35,6.30
2015,08,31,15,36,5.90
2015,08,31,15,37,6.30
2015,08,31,15,38,7.80
2015,08,31,15,39,7.10
2015,08,31,15,40,5.60
2015,08,31,15,41,5.80
2015,08,31,15,42,6.20
2015,08,31,15,43,5.30
2015,08,31,15,44,4.30
2015,08,31,15,45,9.60
2015,08,31,15,46,8.60
2015,08,31,15,47,10.60
2015,08,31,15,48,11.60
2015,08,31,15,49,11.40
2015,08,31,15,50,5.90
2015,08,31,15,51,3.90
2015,08,31,15,52,6.10
2015,08,31,15,53,5.40
2015,08,31,15,54,10.50
2015,08,31,15,55,5.40
2015,08,31,15,56,6.30
2015,08,31,15,57,7.10
2015,08,31,15,58,7.50
2015,08,31,15,59,6.90
2015,08,31,16,00,7.80
2015,08,31,16,01,6.80
2015,08,31,16,02,7.10
2015,08,31,16,03,6.40
2015,08,31,16,04,7.40
2015,08,31,16,05,10.00
2015,08,31,16,06,10.40
2015,08,31,16,07,6.50
2015,08,31,16,08,6.90
2015,08,31,16,09,9.70
2015,08,31,16,10,9.10
2015,08,31,16,11,6.80
2015,08,31,16,12,6.20
2015,08,31,16,13,8.30
2015,08,31,16,14,7.10
2015,08,31,16,15,9.50
2015,08,31,16,16,8.80
2015,08,31,16,17,7.50
2015,08,31,16,18,8.00
2015,08,31,16,19,5.80
2015,08,31,16,20,8.40
2015,08,31,16,21,9.60
2015,08,31,16,22,5.70
2015,08,31,16,23,7.10
2015,08,31,16,24,10.30
2015,08,31,16,25,8.30
2015,08,31,16,26,7.70
2015,08,31,16,27,6.20
2015,08,31,16,28,4.70
2015,08,31,16,29,4.70
2015,08,31,16,30,9.50
2015,08,31,16,31,10.70
2015,08,31,16,32,11.00
2015,08,31,16,33,5.30
2015,08,31,16,34,7.90
2015,08,31,16,35,4.90
2015,08,31,16,36,6.10
2015,08,31,16,37,4.40
2015,08,31,16,38,13.20
2015,08,31,16,39,9.30
2015,08,31,16,40,8.90
2015,08,31,16,41,14.10
2015,08,31,16,42,10.80
2015,08,31,16,43,12.40
2015,08,31,16,44,17.10
2015,08,31,16,45,13.20
2015,08,31,16,46,13.50
2015,08,31,16,47,9.50
2015,08,31,16,48,8.50
2015,08,31,16,49,11.70
2015,08,31,16,50,10.10
2015,08,31,16,51,8.20
2015,08,31,16,52,7.70
2015,08,31,16,53,7.60
2015,08,31,16,54,14.70
2015,08,31,16,55,15.30
2015,08,31,16,56,15.30
2015,08,31,16,57,10.20
2015,08,31,16,58,12.80
2015,08,31,16,59,15.10
2015,08,31,17,00,12.10
2015,08,31,17,01,15.30
2015,08,31,17,02,10.80
2015,08,31,17,03,11.70
2015,08,31,17,04,10.90
2015,08,31,17,05,9.00
2015,08,31,17,06,11.40
2015,08,31,17,07,12.00
2015,08,31,17,08,14.00
2015,08,31,17,09,14.80
2015,08,31,17,10,12.50
2015,08,31,17,11,10.80
2015,08,31,17,12,8.10
2015,08,31,17,13,5.80
2015,08,31,17,14,5.50
2015,08,31,17,15,9.40
2015,08,31,17,16,10.00
2015,08,31,17,17,8.80
2015,08,31,17,18,8.50
2015,08,31,17,19,13.60
2015,08,31,17,20,12.30
2015,08,31,17,21,12.60
2015,08,31,17,22,13.30
2015,08,31,17,23,11.30
2015,08,31,17,24,9.40
2015,08,31,17,25,11.50
2015,08,31,17,26,11.60
2015,08,31,17,27,14.60
2015,08,31,17,28,10.30
2015,08,31,17,29,12.20
2015,08,31,17,30,8.30
2015,08,31,17,31,10.60
2015,08,31,17,32,9.70
2015,08,31,17,33,9.20
2015,08,31,17,34,11.50
2015,08,31,17,35,14.40
2015,08,31,17,36,9.20
2015,08,31,17,37,14.50
2015,08,31,17,38,13.20
2015,08,31,17,39,12.90
2015,08,31,17,40,12.70
2015,08,31,17,41,8.50
2015,08,31,17,42,10.10
2015,08,31,17,43,12.30
2015,08,31,17,44,14.00
2015,08,31,17,45,16.00
2015,08,31,17,46,15.30
2015,08,31,17,47,13.80
2015,08,31,17,48,13.70
2015,08,31,17,49,13.30
2015,08,31,17,50,13.00
2015,08,31,17,51,12.30
2015,08,31,17,52,11.90
2015,08,31,17,53,11.80
2015,08,31,17,54,14.20